Theta_e
311 313 313 310 312 313 312 310 310 312 314 317 306 307 311 311 313 320 320 320 317 313 313 315 316 315 314 309 312 311 313 313 312 314 316 317 316 317 315 317 319 314 311 311 310 315 321 319 322 322 321 322 327 331
313 312 310 310 310 312 312 310 310 311 313 316 306 307 310 311 313 319 319 320 319 312 314 316 317 316 316 314 309 309 313 314 315 314 314 315 318 316 316 315 314 316 315 318 314 316 316 315 322 321 321 321 323 322
312 311 311 311 311 311 312 311 310 311 314 315 306 306 308 310 313 318 320 320 319 312 314 314 317 318 318 318 316 314 312 313 313 311 312 313 316 312 315 317 319 316 312 317 317 318 317 315 316 319 318 318 319 319
311 312 313 312 312 312 311 311 311 312 315 315 306 306 307 310 311 316 319 318 320 314 314 315 318 317 317 318 318 317 313 313 310 308 308 310 315 312 314 314 315 316 316 313 314 316 315 314 314 317 317 316 317 317
312 313 312 312 312 311 311 312 311 312 316 312 306 306 307 310 311 317 319 316 318 317 315 315 314 316 316 316 316 316 316 312 310 312 313 316 310 311 310 311 312 313 314 314 316 314 312 314 313 314 316 316 315 315
312 311 311 311 311 311 311 312 312 314 317 308 306 307 308 311 317 321 315 319 317 319 313 317 312 316 315 315 314 313 312 309 310 311 311 310 308 309 312 312 313 312 312 311 315 313 312 314 313 313 312 312 311 311
312 311 311 311 311 311 311 311 313 316 314 306 307 308 310 313 318 320 317 318 316 320 313 316 316 313 316 315 312 310 310 307 308 307 309 308 308 307 308 306 313 312 313 315 314 313 316 314 314 312 312 313 312 310
312 310 311 311 311 311 312 314 315 311 306 307 308 312 315 317 319 320 317 316 319 322 312 316 317 315 315 314 314 309 310 308 306 307 306 308 305 303 305 308 310 310 312 314 313 312 311 312 313 313 312 311 311 309
311 310 310 311 313 314 315 314 307 306 307 310 312 315 318 320 320 318 314 315 315 320 319 315 317 318 311 310 309 310 308 312 306 309 309 307 307 307 304 305 308 310 313 313 313 313 313 313 312 312 312 311 310 310
312 311 312 313 314 315 310 305 307 309 312 314 318 320 318 320 316 314 316 314 316 315 315 318 312 317 311 311 312 311 307 309 307 309 308 309 308 307 306 303 306 309 311 310 312 312 312 312 311 313 311 310 310 311
313 314 314 314 312 305 305 308 311 313 316 319 319 318 318 315 319 316 318 320 318 322 313 314 312 315 311 315 313 309 310 308 311 310 311 307 310 309 310 305 304 306 310 309 309 309 310 310 311 311 311 313 312 312
313 311 308 305 305 306 309 312 315 316 313 311 313 316 319 316 314 321 319 318 319 319 313 314 313 312 311 308 312 311 312 310 314 309 313 308 309 308 310 311 309 308 310 311 311 310 312 312 312 311 310 311 313 313
310 309 305 305 305 305 307 311 311 308 315 319 318 320 315 316 317 323 325 322 319 315 315 314 315 312 310 307 309 311 313 312 309 314 310 310 307 310 310 311 311 311 312 312 312 312 312 312 312 312 311 312 312 312
308 307 306 305 305 305 305 306 306 308 317 319 320 314 317 320 321 319 321 322 319 316 314 312 313 314 310 312 310 315 312 310 314 312 315 311 309 310 311 310 311 311 311 310 310 311 311 311 311 311 311 311 312 311
307 310 310 309 308 307 307 306 306 308 318 321 319 320 321 318 317 321 321 319 315 313 314 314 313 313 314 316 314 314 318 319 315 313 310 310 310 311 310 309 308 308 306 303 305 306 307 307 307 307 307 307 308 308
309 312 313 312 309 310 309 308 307 311 317 319 319 321 319 321 321 321 320 320 313 311 312 312 316 317 319 315 317 318 319 318 315 311 309 310 310 310 309 308 308 306 304 304 306 306 306 306 305 305 306 307 307 307
310 313 312 310 309 308 308 311 313 316 318 319 317 315 317 317 318 318 319 319 310 314 316 314 319 318 314 317 318 316 317 313 313 314 314 314 312 311 310 310 307 304 304 305 305 304 305 306 306 306 304 305 306 306
312 312 310 310 311 313 312 313 315 320 321 316 317 315 316 316 318 318 318 317 313 312 314 318 316 318 318 318 315 316 316 315 316 318 317 315 313 313 313 311 307 305 305 305 304 305 306 306 305 305 306 306 305 304
310 310 308 309 311 312 314 316 314 318 319 316 315 315 316 317 316 317 318 317 313 311 314 315 317 317 317 316 320 319 317 317 317 318 316 315 313 313 313 310 307 304 305 304 304 305 306 306 307 307 307 306 305 304
312 312 310 308 309 311 316 316 317 317 319 318 316 318 318 319 319 318 317 316 314 314 317 318 316 318 320 320 319 319 317 318 317 316 315 314 313 313 312 308 305 305 305 304 305 306 306 306 306 307 306 305 304 305
312 311 311 311 310 308 310 313 318 318 319 321 320 321 323 321 323 323 321 317 320 322 322 320 321 322 320 320 320 320 317 317 317 317 316 315 314 313 312 310 306 305 305 303 304 304 305 304 305 306 306 306 306 306
312 313 313 310 311 313 311 313 315 316 318 320 320 321 323 324 324 322 319 321 322 322 321 320 318 317 317 317 318 319 319 319 315 314 314 314 311 309 309 309 306 305 305 305 304 305 306 305 305 305 305 304 304 303
312 312 312 313 314 310 312 315 320 319 320 321 324 325 324 324 322 319 323 320 319 317 318 318 318 318 316 317 316 316 318 316 311 313 312 312 313 313 313 312 309 307 305 306 306 306 306 305 305 305 304 304 304 304
312 311 314 315 314 312 314 318 318 321 321 323 325 325 325 326 323 324 325 320 318 316 317 317 317 311 309 310 310 310 312 312 312 311 312 312 310 311 313 313 310 308 308 308 307 307 306 306 306 305 304 304 304 303
310 311 308 306 312 320 321 322 322 322 324 324 325 324 324 321 324 325 325 322 319 320 319 318 317 311 310 310 310 312 313 313 311 311 313 313 313 310 309 310 310 310 309 307 305 305 305 306 306 305 305 304 304 304
313 316 312 316 317 318 318 322 323 323 323 323 326 325 324 325 327 325 322 320 320 320 318 316 317 315 311 311 311 310 313 313 313 312 313 313 314 310 304 302 301 304 306 306 306 305 304 304 304 305 305 305 305 304
316 317 315 313 315 317 318 318 320 322 323 321 324 325 323 324 327 323 319 318 320 317 315 316 318 317 314 311 312 312 314 313 312 311 313 313 312 311 310 305 303 306 306 306 306 306 305 305 304 304 305 305 305 304
314 315 319 317 317 317 319 321 321 319 322 320 323 326 325 323 322 318 318 320 319 315 315 315 314 314 314 313 313 312 308 307 307 307 308 308 308 307 306 306 306 306 307 306 306 306 306 305 305 305 305 304 304 304
316 315 315 317 318 321 320 321 321 321 321 321 322 323 323 320 318 318 320 317 314 314 313 312 313 313 314 314 313 310 307 307 305 303 303 301 301 305 306 306 305 305 306 306 306 305 305 305 305 305 305 305 304 304
314 313 316 318 319 319 318 318 322 321 320 319 318 318 317 316 321 322 317 314 313 312 312 312 313 313 312 311 311 310 306 306 307 305 301 302 304 306 305 305 305 306 306 305 305 305 305 304 304 304 304 303 303 304
313 313 315 316 317 316 316 316 319 319 319 321 320 320 322 319 319 319 318 315 314 312 312 311 310 310 310 309 308 306 304 306 306 306 306 306 306 306 305 305 305 305 305 305 305 304 304 303 303 302 301 301 303 303
313 315 316 318 317 315 315 319 321 321 320 320 321 320 321 321 320 314 318 318 314 313 311 310 310 309 310 311 310 309 308 307 307 307 307 307 306 306 306 305 305 305 305 304 303 304 303 302 302 303 303 303 303 305
316 317 319 319 318 322 321 321 321 319 319 319 319 322 323 321 319 315 316 316 316 314 311 311 310 309 309 309 309 309 308 307 307 307 307 307 307 307 306 305 305 305 305 305 304 303 303 303 302 302 303 304 304 304
Wind_Speed
26 27 27 25 19 18 18 16 13 11 7 5 7 7 9 10 11 6 7 14 4 4 5 4 3 4 3 3 2 3 4 4 4 4 2 1 1 1 3 3 1 3 4 2 2 2 2 4 3 2 4 1 2 5
27 25 23 21 19 17 16 13 11 9 5 5 4 6 7 8 10 5 4 11 4 5 4 9 15 8 3 4 5 2 4 2 4 4 1 2 1 2 3 1 5 2 4 5 5 5 5 5 1 1 4 4 4 6
25 22 21 19 17 18 15 10 10 8 4 4 3 5 5 6 7 7 6 14 5 4 5 6 4 18 16 9 4 4 2 3 1 3 4 2 2 3 3 3 2 3 2 3 3 3 6 6 4 4 3 6 7 11
24 23 20 18 17 18 13 10 10 5 4 3 2 3 2 4 4 7 5 11 4 4 4 4 5 6 12 13 15 6 5 5 6 3 3 2 2 0 3 2 3 3 3 3 1 2 2 6 5 3 7 9 11 8
22 21 19 17 17 14 10 9 7 6 5 4 3 2 2 1 3 4 6 10 8 3 4 2 2 5 13 14 15 17 14 4 3 3 3 1 0 2 2 2 2 1 4 4 4 5 4 2 6 0 8 8 11 12
21 20 16 14 11 9 7 6 5 7 7 5 3 2 1 1 2 4 3 2 8 2 4 1 3 1 9 15 17 13 8 4 3 3 2 1 1 3 2 2 4 3 2 5 4 4 4 4 2 3 3 5 9 10
19 16 11 9 6 3 4 5 8 8 8 5 2 2 1 1 2 3 3 1 4 2 3 2 2 3 2 4 4 3 7 3 3 2 2 1 2 3 2 2 4 3 4 2 1 4 2 4 2 5 7 3 8 14
17 11 7 4 2 4 5 6 7 8 4 2 3 4 3 2 2 2 2 2 2 3 4 3 2 2 1 1 2 3 2 3 4 3 1 2 2 2 2 6 4 4 4 3 4 1 3 1 2 4 5 7 2 2
13 6 4 3 4 4 5 7 5 3 4 4 5 4 2 1 2 1 2 2 3 3 3 2 4 4 1 1 0 3 2 3 2 1 1 3 1 3 7 7 5 6 6 5 4 3 3 2 1 1 1 4 5 4
10 7 7 4 4 6 6 4 2 5 5 6 2 2 2 1 2 2 1 3 4 3 3 2 2 2 4 1 1 2 2 1 1 3 3 2 3 5 7 8 6 7 6 4 3 3 2 2 3 2 4 3 3 3
6 5 5 6 6 6 4 4 5 6 4 2 2 1 2 1 1 3 1 2 0 1 1 3 4 3 1 3 3 1 2 0 2 4 2 2 3 5 6 9 8 8 7 9 6 5 7 5 4 3 3 2 4 6
5 4 6 6 5 5 4 4 4 3 3 1 2 3 2 3 3 2 1 2 2 5 2 5 4 4 1 3 3 0 2 2 4 2 2 3 4 6 6 9 9 10 11 8 12 9 9 9 9 8 5 4 7 7
4 2 3 3 4 4 3 2 4 6 3 3 3 2 3 1 3 4 5 3 2 3 4 3 1 3 2 3 3 2 2 4 1 1 3 5 4 4 7 6 7 11 12 10 9 11 10 11 9 10 9 9 8 11
5 2 2 4 2 1 1 1 3 2 1 2 3 3 4 3 4 5 4 3 4 3 5 4 2 3 1 2 3 2 3 2 1 2 5 4 7 7 6 5 4 7 7 6 6 6 6 8 6 8 7 7 11 12
6 2 3 5 4 4 5 2 2 1 1 1 3 3 5 5 4 4 4 2 2 4 6 4 3 3 1 3 3 2 2 4 5 5 4 4 6 6 6 5 6 7 6 7 12 12 11 8 6 4 4 5 8 12
7 2 2 4 7 6 7 4 2 1 0 1 3 2 3 1 4 2 3 4 3 4 3 3 3 2 4 4 4 6 4 6 3 2 3 3 1 4 4 4 5 10 14 14 12 10 7 4 3 4 5 8 10 10
5 2 5 5 4 1 5 3 2 2 3 3 4 3 3 3 5 4 3 3 6 4 4 3 5 9 2 2 3 4 5 4 3 3 3 8 3 7 8 10 10 12 13 13 10 7 4 2 1 3 6 10 9 11
1 1 5 4 2 2 1 2 2 3 5 5 3 3 3 3 3 4 3 2 4 4 4 5 3 4 5 4 4 3 3 2 3 2 4 5 8 14 14 10 12 16 14 11 8 5 4 3 4 6 6 6 5 7
4 5 5 2 1 1 0 3 4 3 5 3 4 3 3 4 4 4 3 4 3 2 5 2 3 4 4 3 4 4 3 3 3 3 3 10 19 14 10 13 20 16 14 12 9 7 5 4 5 5 3 5 4 5
7 6 6 4 3 1 2 3 5 3 3 3 2 3 3 4 4 3 1 1 2 3 2 4 5 3 4 3 3 4 3 4 4 3 4 2 13 7 7 14 18 18 15 10 10 12 8 4 3 4 4 6 5 6
3 2 4 4 3 4 2 2 3 3 3 3 3 2 4 2 3 3 2 1 3 3 4 4 3 3 3 9 8 3 4 8 5 5 5 4 10 12 8 13 16 18 17 15 14 11 9 8 7 5 2 1 0 2
1 5 1 4 2 3 3 7 3 3 2 3 3 3 3 2 3 3 3 2 3 3 3 3 3 1 2 4 5 7 9 10 6 9 14 10 3 3 4 12 14 13 17 20 19 17 13 10 10 7 2 2 1 2
2 2 3 4 1 1 6 3 3 3 2 3 1 2 3 2 3 3 2 2 3 3 1 2 1 2 2 7 5 3 9 12 8 12 12 12 9 10 15 17 21 19 15 21 20 19 15 12 11 9 6 4 5 4
3 2 2 3 5 4 2 3 3 3 2 2 2 4 2 2 2 2 1 2 2 0 2 3 4 3 3 1 2 4 12 12 9 5 10 14 7 11 16 20 23 22 22 24 20 19 18 17 14 10 9 5 5 9
2 4 4 4 3 3 4 3 3 2 3 3 2 2 3 3 2 3 2 3 1 1 2 2 4 4 4 2 1 5 7 5 5 3 10 13 11 2 6 9 15 21 21 22 23 21 20 17 16 15 12 7 7 5
3 4 6 4 3 4 3 1 3 4 2 2 2 1 1 2 2 2 2 2 1 2 2 2 3 4 3 6 4 3 9 6 6 5 6 8 13 13 9 6 5 12 22 28 25 24 21 19 19 18 15 12 9 6
4 5 4 4 3 2 3 3 3 2 3 3 2 2 0 1 2 3 2 3 3 3 4 6 2 6 6 10 10 8 4 5 9 8 8 12 19 21 21 22 14 24 28 27 25 24 21 18 18 20 19 17 14 13
5 3 5 2 2 3 3 2 2 2 4 3 3 2 3 4 3 3 4 4 6 4 4 5 6 3 11 14 9 4 11 17 17 17 15 11 6 18 18 18 19 20 27 28 24 23 22 20 18 21 19 15 11 12
4 3 1 4 4 3 3 5 2 3 3 3 3 2 2 2 2 2 4 10 9 7 4 2 4 5 6 5 5 9 19 23 17 7 6 3 3 5 8 11 15 18 24 24 24 23 21 20 19 18 16 16 14 12
4 4 3 4 3 4 3 4 2 1 1 2 2 2 3 3 1 3 13 13 10 10 7 5 8 7 5 5 3 6 17 17 13 14 5 6 11 16 14 12 12 12 18 19 17 17 14 13 12 10 14 13 11 10
2 3 4 4 3 4 5 1 1 3 2 1 0 3 2 1 2 3 16 18 15 7 7 6 6 7 7 8 8 4 5 13 13 11 14 15 17 21 18 17 16 16 15 16 18 18 16 14 12 11 11 10 10 10
4 6 4 3 4 4 2 2 2 2 2 3 2 2 2 2 2 3 6 19 13 9 9 10 7 9 16 20 17 15 15 14 15 10 9 9 22 22 19 18 19 19 18 16 17 18 15 13 15 14 12 12 10 12
3 3 3 3 1 2 1 3 2 2 2 1 2 1 2 3 3 3 3 12 15 18 17 12 11 12 12 14 12 10 13 13 13 14 13 11 14 19 21 22 24 25 23 22 21 20 18 15 14 15 15 13 12 10
Wind_Direction
320 321 320 319 315 315 315 314 307 311 309 325 345 352 7 17 19 64 45 26 62 105 312 22 68 63 29 62 111 281 38 350 38 62 110 258 91 279 47 308 134 146 124 170 71 92 243 4 335 285 240 22 186 162
319 319 319 317 314 308 311 307 300 297 297 307 329 354 8 20 22 50 37 25 68 100 185 75 67 72 91 182 143 22 169 184 177 91 88 113 97 62 171 259 338 22 177 167 163 214 257 283 258 264 193 147 155 116
320 320 315 312 310 310 306 300 294 287 269 286 331 347 359 24 37 43 34 22 64 71 11 45 13 57 54 54 55 116 298 173 151 158 155 152 104 128 143 235 213 310 80 102 85 344 343 347 360 62 58 94 107 123
321 316 311 307 305 303 291 283 283 252 245 248 263 328 351 14 21 57 54 24 66 103 110 277 338 41 61 54 57 67 132 87 92 63 88 105 136 167 205 204 172 208 38 137 334 291 306 9 15 108 101 102 112 123
322 319 312 305 301 296 277 264 257 233 228 213 249 301 321 6 6 80 89 48 34 112 158 200 320 52 66 67 71 63 62 73 52 52 50 81 270 57 344 52 290 222 165 149 208 216 152 289 307 101 141 150 149 141
323 322 315 307 301 283 260 243 248 202 213 211 249 302 181 6 90 139 30 51 33 57 97 113 292 286 78 74 57 47 50 66 76 102 122 88 135 114 83 231 268 273 243 193 182 194 218 181 58 49 126 169 169 163
329 327 323 318 311 263 213 202 191 196 197 205 242 155 171 84 84 104 178 353 359 28 86 49 343 294 136 49 34 22 35 61 94 104 62 102 5 56 112 206 221 258 297 264 245 121 355 17 39 40 18 311 200 183
335 331 337 354 24 105 127 148 170 174 184 192 147 120 108 92 92 78 43 51 40 82 73 109 277 6 155 33 11 7 47 27 13 132 70 107 13 24 277 246 247 266 276 227 241 242 181 229 325 1 35 20 87 162
349 350 10 84 97 71 109 137 146 152 146 142 132 117 100 91 74 91 126 93 28 77 132 101 148 232 37 76 72 28 60 49 297 96 222 105 214 243 226 209 202 211 185 198 195 206 208 251 286 189 66 79 78 26
17 42 83 95 74 104 109 104 113 133 131 121 96 77 21 65 135 147 124 28 20 353 51 181 143 207 111 71 5 81 27 133 33 263 110 107 256 243 232 219 206 196 211 166 146 277 265 262 243 216 206 214 198 154
27 54 68 84 87 79 73 101 115 116 96 42 36 107 0 138 181 37 60 103 287 279 191 222 176 155 263 130 192 179 166 92 44 267 114 286 279 242 206 203 211 210 207 198 221 199 198 186 189 214 255 219 225 230
29 70 82 81 76 68 86 112 55 74 61 32 286 326 342 46 45 103 227 324 192 219 209 165 202 162 175 113 100 222 120 61 241 160 118 267 251 237 206 211 208 201 203 206 211 208 213 220 216 205 215 206 179 194
359 62 54 73 84 75 85 128 35 28 79 77 50 45 57 332 60 188 193 244 245 205 194 167 121 133 58 56 70 104 124 226 82 115 225 224 235 240 224 211 199 201 206 194 212 221 213 221 229 209 217 236 224 202
350 333 308 336 336 321 60 54 11 13 60 91 127 313 174 217 233 199 196 194 239 191 149 123 102 130 137 88 134 136 239 88 276 228 238 245 227 224 193 192 151 190 178 176 189 197 190 189 206 212 219 233 225 227
345 318 334 345 328 300 294 293 333 336 121 171 119 231 221 229 247 238 219 274 246 141 132 89 58 101 99 138 186 138 218 231 207 229 232 249 226 176 167 161 151 131 134 130 132 123 126 135 146 165 194 212 229 248
342 357 134 324 313 278 255 245 235 197 257 202 227 261 240 143 284 265 230 244 158 126 83 71 126 126 209 185 157 210 200 216 245 250 279 310 31 107 111 96 91 132 138 136 136 136 140 160 215 265 281 273 271 271
345 78 354 354 16 95 140 132 185 204 225 236 252 225 226 245 232 238 202 229 138 113 162 133 174 214 121 195 227 194 206 195 198 218 211 99 144 110 98 112 157 150 143 138 141 147 133 124 308 320 318 315 299 293
199 11 5 356 342 338 269 212 234 242 240 238 222 244 211 216 246 263 246 135 138 173 139 203 140 166 204 202 231 222 207 216 190 198 164 149 143 130 144 204 183 172 158 160 137 125 108 20 334 302 310 327 324 351
249 296 319 283 267 309 322 234 196 252 241 244 245 238 223 241 230 241 240 198 188 128 126 145 222 208 226 195 177 181 222 203 199 229 141 171 152 151 196 204 187 177 164 158 154 147 113 53 22 8 10 7 359 6
289 276 253 234 208 131 274 259 203 241 259 243 248 249 209 215 235 223 229 74 134 141 154 199 214 206 182 221 214 171 207 193 153 151 129 149 136 176 195 184 188 178 171 162 154 148 143 120 109 103 97 63 82 78
275 192 181 185 190 224 254 275 258 223 261 246 251 209 247 235 227 201 142 129 76 168 218 207 200 212 193 263 254 229 182 175 183 165 171 182 195 198 176 200 195 179 175 171 164 177 172 187 163 142 144 152 189 270
169 162 145 192 225 214 253 232 227 267 254 251 295 216 254 246 230 186 150 101 200 244 209 171 127 154 296 291 262 238 221 192 176 182 165 145 127 143 181 193 180 188 193 189 185 186 193 198 191 196 214 113 148 20
171 216 231 195 233 183 261 185 214 235 236 260 286 253 246 242 187 96 91 213 248 238 247 68 150 227 268 305 270 185 181 173 154 166 180 175 179 221 229 215 204 189 195 210 202 192 191 198 201 209 191 150 147 144
191 235 228 222 180 255 283 241 218 250 243 254 256 276 273 322 355 62 164 241 264 9 165 197 174 65 38 36 128 149 141 152 139 149 190 194 209 238 216 210 207 211 215 212 203 200 199 203 209 213 212 211 178 145
90 261 126 272 245 243 237 241 214 206 243 232 250 300 346 354 41 26 346 296 297 302 292 216 172 176 157 178 146 186 176 153 165 202 264 240 220 188 168 204 211 219 213 191 188 196 202 203 207 216 233 222 199 187
215 224 180 222 239 200 240 122 262 215 202 254 260 197 289 127 133 243 239 245 245 256 284 274 201 164 191 178 164 182 237 253 202 218 276 211 200 195 183 172 171 200 193 190 189 195 194 200 208 212 223 237 244 252
235 244 226 229 240 267 286 268 212 187 206 225 218 157 146 203 228 239 256 215 230 266 326 339 210 184 169 172 184 198 256 272 246 236 224 227 218 216 203 180 186 200 193 192 195 194 192 196 204 211 221 234 237 233
230 246 209 215 224 228 247 261 266 230 204 216 127 194 202 208 232 219 204 209 195 154 112 55 44 131 162 162 157 138 121 123 116 112 99 86 150 201 198 205 211 204 197 197 201 201 203 204 204 208 217 225 240 223
232 234 153 258 245 254 227 205 234 232 187 154 191 224 244 224 202 162 173 168 173 164 145 112 89 126 133 143 143 137 154 147 131 110 113 118 55 136 174 203 197 193 194 198 202 202 205 211 216 220 223 223 231 239
246 187 206 239 201 221 250 192 213 111 88 140 132 32 8 348 330 157 169 172 185 206 200 196 179 181 194 192 215 157 182 193 185 156 165 188 192 167 169 173 177 180 190 194 198 196 204 203 197 195 197 207 226 224
222 158 202 205 234 237 245 183 58 81 73 72 349 127 133 322 312 165 192 197 207 201 167 167 186 195 188 195 212 207 237 221 227 244 245 235 188 179 179 177 170 169 172 181 178 178 180 192 202 218 218 212 213 230
185 192 186 226 245 255 108 122 96 66 359 26 17 42 62 36 276 297 198 201 201 185 186 175 181 225 232 222 215 217 229 231 201 213 223 210 197 194 194 193 194 195 197 197 196 202 205 205 208 215 226 240 258 261
172 187 181 195 200 130 57 101 73 68 65 358 290 246 177 182 217 242 181 206 212 199 181 157 135 122 127 138 150 172 169 178 188 195 198 194 194 204 208 206 204 207 211 213 214 216 220 221 221 227 238 240 256 223